TimeEDT,TemperatureF,Dew PointF,Humidity,Sea Level PressureIn,VisibilityMPH,Wind Direction,Wind SpeedMPH,Gust SpeedMPH,PrecipitationIn,Events,Conditions,WindDirDegrees,DateUTC
12:07 AM,73.4,69.8,88,29.76,10.0,South,8.1,17.3,N/A,,Overcast,180,2013-06-11 04:07:00
12:51 AM,72.0,69.1,91,29.75,10.0,SSW,11.5,-,N/A,,Overcast,210,2013-06-11 04:51:00
1:29 AM,71.6,69.8,94,29.74,10.0,SSW,6.9,-,N/A,,Mostly Cloudy,210,2013-06-11 05:29:00
1:44 AM,71.6,69.8,94,29.73,10.0,WSW,3.5,-,N/A,,Mostly Cloudy,240,2013-06-11 05:44:00
1:51 AM,71.1,69.1,93,29.73,10.0,SW,5.8,-,N/A,,Overcast,230,2013-06-11 05:51:00
2:27 AM,71.6,68.0,88,29.75,10.0,WSW,15.0,20.7,N/A,,Overcast,240,2013-06-11 06:27:00
2:51 AM,70.0,68.0,93,29.74,10.0,SW,11.5,-,0.00,,Overcast,230,2013-06-11 06:51:00
3:20 AM,69.8,66.2,88,29.74,10.0,WSW,6.9,-,N/A,,Mostly Cloudy,240,2013-06-11 07:20:00
3:51 AM,69.1,66.9,93,29.74,10.0,SW,8.1,-,N/A,,Scattered Clouds,230,2013-06-11 07:51:00
4:51 AM,68.0,66.0,93,29.75,10.0,WSW,6.9,-,N/A,,Scattered Clouds,240,2013-06-11 08:51:00
5:51 AM,66.9,64.9,93,29.75,7.0,SW,10.4,-,N/A,,Clear,230,2013-06-11 09:51:00
6:26 AM,66.2,64.4,94,29.76,7.0,WSW,8.1,-,N/A,,Partly Cloudy,250,2013-06-11 10:26:00
6:51 AM,68.0,66.0,93,29.75,8.0,WSW,8.1,-,N/A,,Clear,240,2013-06-11 10:51:00
7:51 AM,70.0,64.9,84,29.77,9.0,WSW,10.4,-,N/A,,Partly Cloudy,240,2013-06-11 11:51:00
8:51 AM,70.0,64.9,84,29.77,10.0,WSW,11.5,-,N/A,,Overcast,250,2013-06-11 12:51:00
9:51 AM,73.0,64.0,73,29.75,10.0,West,10.4,-,N/A,,Mostly Cloudy,270,2013-06-11 13:51:00
10:25 AM,73.4,64.4,73,29.75,10.0,WSW,12.7,18.4,N/A,,Mostly Cloudy,250,2013-06-11 14:25:00
10:51 AM,73.9,64.0,71,29.74,10.0,West,10.4,18.4,N/A,,Mostly Cloudy,260,2013-06-11 14:51:00
10:59 AM,73.4,64.4,73,29.75,10.0,West,11.5,-,N/A,,Mostly Cloudy,270,2013-06-11 14:59:00
11:06 AM,75.2,64.4,69,29.75,10.0,WSW,16.1,20.7,N/A,,Overcast,240,2013-06-11 15:06:00
11:51 AM,77.0,64.9,66,29.73,10.0,WSW,15.0,20.7,N/A,,Mostly Cloudy,240,2013-06-11 15:51:00
12:51 PM,75.9,64.0,67,29.71,10.0,WSW,18.4,-,N/A,,Mostly Cloudy,250,2013-06-11 16:51:00
1:51 PM,75.9,64.0,67,29.71,10.0,West,15.0,23.0,0.00,,Overcast,260,2013-06-11 17:51:00
2:51 PM,75.9,64.0,67,29.69,10.0,West,13.8,19.6,N/A,,Overcast,260,2013-06-11 18:51:00
3:51 PM,77.0,64.0,64,29.68,10.0,West,15.0,28.8,N/A,,Overcast,260,2013-06-11 19:51:00
4:51 PM,78.1,64.0,62,29.68,10.0,West,15.0,21.9,N/A,,Overcast,270,2013-06-11 20:51:00
5:51 PM,77.0,62.1,60,29.68,10.0,WNW,10.4,23.0,0.01,,Overcast,290,2013-06-11 21:51:00
6:51 PM,75.9,61.0,60,29.69,10.0,West,11.5,19.6,N/A,,Mostly Cloudy,260,2013-06-11 22:51:00
7:51 PM,75.0,60.1,60,29.71,10.0,West,12.7,23.0,N/A,,Clear,280,2013-06-11 23:51:00
8:51 PM,72.0,60.1,66,29.73,10.0,West,9.2,-,N/A,,Scattered Clouds,270,2013-06-12 00:51:00
9:51 PM,71.1,60.1,68,29.75,10.0,WSW,9.2,-,N/A,,Overcast,250,2013-06-12 01:51:00
10:51 PM,68.0,60.1,76,29.76,10.0,WSW,5.8,-,N/A,,Partly Cloudy,250,2013-06-12 02:51:00
11:51 PM,69.1,59.0,70,29.77,10.0,West,9.2,-,N/A,,Clear,270,2013-06-12 03:51:00